This is the latest recevied weather packets stored in our database for station/object DJ2DS-13. If no packets are shown the sender has not sent any weather packets the latest 1 day(s).
| Time | Temp. | Humidity | Pressure | Rain* | Wind** | Luminosity | Snow |
|---|---|---|---|---|---|---|---|
| 1778012492 | 9.44° C | 85% | 1009.6 hPa | 0 mm | 0.89 m/s, 0° | 0 W/m² | - |
| 1778012193 | 9.44° C | 85% | 1009.6 hPa | 0 mm | 0.89 m/s, 18° | 0 W/m² | - |
| 1778011892 | 9.44° C | 84% | 1009.6 hPa | 0 mm | 0.89 m/s, 20° | 0 W/m² | - |
| 1778011594 | 9.44° C | 84% | 1009.6 hPa | 0 mm | 1.34 m/s, 20° | 0 W/m² | - |
| 1778011290 | 9.44° C | 84% | 1009.5 hPa | 0 mm | 0.89 m/s, 4° | 0 W/m² | - |
| 1778010990 | 9.44° C | 84% | 1009.5 hPa | 0 mm | 0.89 m/s, 8° | 0 W/m² | - |
| 1778010694 | 9.44° C | 84% | 1009.5 hPa | 0 mm | 0.89 m/s, 17° | 0 W/m² | - |
| 1778010391 | 9.44° C | 84% | 1009.4 hPa | 0 mm | 0.89 m/s, 8° | 0 W/m² | - |
| 1778010089 | 9.44° C | 84% | 1009.5 hPa | 0 mm | 1.34 m/s, 20° | 0 W/m² | - |
| 1778009790 | 9.44° C | 83% | 1009.6 hPa | 0 mm | 0.89 m/s, 21° | 0 W/m² | - |
| 1778009489 | 9.44° C | 84% | 1009.7 hPa | 0 mm | 0.89 m/s, 14° | 0 W/m² | - |
| 1778009190 | 9.44° C | 84% | 1009.6 hPa | 0 mm | 0.89 m/s, 0° | 0 W/m² | - |
| 1778008888 | 9.44° C | 84% | 1009.6 hPa | 0 mm | 0.89 m/s, 14° | 0 W/m² | - |
| 1778008591 | 9.44° C | 84% | 1009.5 hPa | 0 mm | 0.89 m/s, 16° | 0 W/m² | - |
| 1778008289 | 9.44° C | 84% | 1009.5 hPa | 0 mm | 0.89 m/s, 0° | 0 W/m² | - |
| 1778007990 | 9.44° C | 84% | 1009.5 hPa | 0 mm | 0.89 m/s, 17° | 0 W/m² | - |
| 1778007689 | 9.44° C | 84% | 1009.4 hPa | 0 mm | 1.34 m/s, 20° | 0 W/m² | - |
| 1778007388 | 10° C | 84% | 1009.5 hPa | 0 mm | 0.89 m/s, 24° | 5 W/m² | - |
| 1778007088 | 10° C | 85% | 1009.3 hPa | 0 mm | 0.89 m/s, 17° | 7 W/m² | - |
| 1778006787 | 10° C | 85% | 1009.3 hPa | 0 mm | 1.34 m/s, 3° | 9 W/m² | - |
| 1778006487 | 10° C | 85% | 1009.2 hPa | 0 mm | 0.89 m/s, 21° | 12 W/m² | - |
| 1778006183 | 10° C | 85% | 1009.3 hPa | 0 mm | 1.79 m/s, 7° | 12 W/m² | - |
| 1778005883 | 10° C | 85% | 1009.3 hPa | 0 mm | 0.89 m/s, 13° | 14 W/m² | - |
| 1778005585 | 10° C | 85% | 1009.3 hPa | 0 mm | 0.89 m/s, 7° | 18 W/m² | - |
| 1778005281 | 10° C | 85% | 1009.3 hPa | 0 mm | 0.89 m/s, 3° | 21 W/m² | - |
* Rain latest hour (hover to see other rain measurements)
** Current wind speed in m/s (hover to see current wind gust speed)